STARLINK-1645 (47622 NORAD) Tracking and Keplerian Element Data

This shows tracking and keplerian element data for the satellite.

Feedback or suggestion? Click here.




ElementValue
Catalog47622
NameSTARLINK-1645
Epoch Orbit183
Epoch Day56.91667824
Epoch Year2021
RAAN53.6629
Inclination53.0492
Eccentricity0.0001146
Argument of Perigee66.4575
Mean Anonmoly26.5423
Mean Motion15.79552718
Decay Rate-0.01069156
L11 47622U 21012C 21056.91667824 -.01069156 00000-0 -63874-2 0 9994
L22 47622 53.0492 53.6629 0001146 66.4575 26.5423 15.79552718 1836

Live tracking and technical data element details for STARLINK-1645 (NORAD 47622). STARLINK-1645 can be tracked NOW for your location showing map with azimuth and elevation plus other details from your city location.

Track the satellite on the map from your city or location and see movement details for azimuth, elevation, latitude, longitude, range, height, and movement on the map or in text.







IsCatalogInMostPopularTable: catalog: 47622, numindb: 1
Update: records affected: 1



GetName: 47622 STARLINK-1645

Hit Count: updated at: Fri, 26 Feb 2021 10:13:11 GMT